| time (UTC) | temp F | wind direction | speed MPH | gust MPH | rain 1hr in | rain 24hr in | rain mn in | humidity % | barometer mb |
| 20260506003711 | 46 | 121 | 2.0 | 4.0 | 0.00 | 0.13 | 0.06 | 76 | 1009.2 |
| 20260506002710 | 46 | 112 | 0.0 | 1.0 | 0.00 | 0.14 | 0.06 | 75 | 1008.9 |
| 20260506001710 | 47 | 126 | 4.0 | 8.0 | 0.00 | 0.14 | 0.06 | 75 | 1008.9 |
| 20260506000710 | 47 | 7 | 3.0 | 4.0 | 0.00 | 0.14 | 0.06 | 76 | 1008.9 |
| 20260505235710 | 46 | 112 | 1.0 | 3.0 | 0.00 | 0.14 | 0.06 | 77 | 1008.9 |
| 20260505234710 | 46 | 73 | 2.0 | 3.0 | 0.00 | 0.15 | 0.06 | 78 | 1008.5 |
| 20260505233710 | 46 | 121 | 4.0 | 5.0 | 0.00 | 0.15 | 0.06 | 78 | 1008.5 |
| 20260505232710 | 46 | 112 | 1.0 | 2.0 | 0.00 | 0.16 | 0.06 | 78 | 1008.5 |
| 20260505231710 | 46 | 183 | 3.0 | 5.0 | 0.00 | 0.16 | 0.06 | 78 | 1008.5 |
| 20260505230710 | 46 | 162 | 1.0 | 4.0 | 0.00 | 0.16 | 0.06 | 79 | 1008.5 |
| 20260505225711 | 46 | 180 | 2.0 | 4.0 | 0.00 | 0.18 | 0.06 | 80 | 1008.5 |
| 20260505224730 | 45 | 112 | 1.0 | 2.0 | 0.00 | 0.18 | 0.06 | 80 | 1008.5 |
| 20260505223710 | 45 | 95 | 3.0 | 4.0 | 0.00 | 0.18 | 0.06 | 80 | 1008.2 |
| 20260505222711 | 45 | 98 | 2.0 | 3.0 | 0.00 | 0.18 | 0.06 | 81 | 1008.5 |
| 20260505221710 | 45 | 202 | 1.0 | 3.0 | 0.00 | 0.18 | 0.06 | 81 | 1008.2 |
| 20260505220710 | 46 | 125 | 3.0 | 5.0 | 0.00 | 0.18 | 0.06 | 82 | 1008.5 |
| 20260505215710 | 46 | 183 | 1.0 | 3.0 | 0.00 | 0.18 | 0.06 | 81 | 1008.2 |
| 20260505214710 | 46 | 126 | 0.0 | 2.0 | 0.00 | 0.18 | 0.06 | 81 | 1008.2 |
| 20260505213710 | 46 | 105 | 3.0 | 6.0 | 0.00 | 0.18 | 0.06 | 80 | 1007.8 |
| 20260505212711 | 46 | 116 | 3.0 | 5.0 | 0.00 | 0.18 | 0.06 | 80 | 1007.8 |
| 20260505211710 | 46 | 120 | 1.0 | 3.0 | 0.00 | 0.18 | 0.06 | 81 | 1007.5 |
| 20260505210710 | 45 | 202 | 1.0 | 2.0 | 0.00 | 0.18 | 0.06 | 83 | 1007.5 |
| 20260505205731 | 45 | 90 | 0.0 | 3.0 | 0.00 | 0.18 | 0.06 | 84 | 1007.5 |
| 20260505204711 | 44 | 0.0 | 0.0 | 0.00 | 0.18 | 0.06 | 83 | 1007.5 | |
| 20260505203711 | 44 | 120 | 2.0 | 4.0 | 0.00 | 0.18 | 0.06 | 83 | 1007.2 |
| 20260505202730 | 44 | 44 | 3.0 | 4.0 | 0.00 | 0.18 | 0.06 | 84 | 1007.5 |
| 20260505201710 | 44 | 112 | 1.0 | 2.0 | 0.01 | 0.18 | 0.06 | 84 | 1007.5 |
| 20260505200710 | 44 | 97 | 0.0 | 3.0 | 0.01 | 0.18 | 0.06 | 85 | 1007.2 |
| 20260505195710 | 44 | 90 | 0.0 | 2.0 | 0.01 | 0.18 | 0.06 | 84 | 1007.2 |
| 20260505194711 | 44 | 112 | 4.0 | 5.0 | 0.01 | 0.18 | 0.06 | 85 | 1007.2 |
| 20260505193731 | 43 | 112 | 3.0 | 3.0 | 0.01 | 0.18 | 0.06 | 86 | 1007.2 |
| 20260505192711 | 43 | 45 | 0.0 | 3.0 | 0.01 | 0.18 | 0.06 | 85 | 1007.2 |
| 20260505191710 | 43 | 112 | 1.0 | 2.0 | 0.00 | 0.17 | 0.05 | 86 | 1007.2 |
| 20260505190730 | 43 | 20 | 4.0 | 6.0 | 0.00 | 0.17 | 0.05 | 86 | 1006.8 |
| 20260505185711 | 43 | 38 | 1.0 | 3.0 | 0.00 | 0.17 | 0.05 | 88 | 1007.1 |
| 20260505184710 | 43 | 0.0 | 0.0 | 0.01 | 0.17 | 0.05 | 87 | 1006.8 | |
| 20260505183710 | 43 | 0.0 | 0.0 | 0.01 | 0.17 | 0.05 | 87 | 1006.8 | |
| 20260505182710 | 42 | 45 | 2.0 | 3.0 | 0.01 | 0.17 | 0.05 | 89 | 1006.8 |
| 20260505181710 | 42 | 71 | 1.0 | 1.0 | 0.01 | 0.17 | 0.05 | 89 | 1006.8 |
| 20260505180730 | 42 | 0.0 | 0.0 | 0.01 | 0.17 | 0.05 | 89 | 1006.5 | |
| 20260505175710 | 42 | 0.0 | 1.0 | 0.01 | 0.17 | 0.05 | 89 | 1006.5 | |
| 20260505174710 | 41 | 0.0 | 0.0 | 0.00 | 0.16 | 0.04 | 88 | 1006.8 | |
| 20260505173710 | 41 | 0.0 | 0.0 | 0.00 | 0.16 | 0.04 | 87 | 1006.5 | |
| 20260505172710 | 41 | 0.0 | 0.0 | 0.00 | 0.16 | 0.04 | 88 | 1006.1 | |
| 20260505171710 | 41 | 360 | 1.0 | 3.0 | 0.00 | 0.16 | 0.04 | 88 | 1006.1 |
| 20260505170710 | 40 | 281 | 1.0 | 4.0 | 0.00 | 0.17 | 0.04 | 89 | 1006.1 |
| 20260505165731 | 40 | 0.0 | 0.0 | 0.00 | 0.17 | 0.04 | 88 | 1005.8 | |
| 20260505164710 | 40 | 202 | 0.0 | 2.0 | 0.00 | 0.18 | 0.04 | 88 | 1005.8 |
| 20260505163710 | 40 | 360 | 1.0 | 2.0 | 0.00 | 0.18 | 0.04 | 88 | 1005.8 |
| 20260505162751 | 40 | 225 | 1.0 | 4.0 | 0.00 | 0.18 | 0.04 | 87 | 1005.8 |
| 20260505161710 | 41 | 0.0 | 0.0 | 0.00 | 0.18 | 0.04 | 86 | 1005.8 | |
| 20260505160731 | 41 | 315 | 6.0 | 10.0 | 0.00 | 0.20 | 0.04 | 86 | 1005.5 |
| 20260505152710 | 40 | 315 | 5.0 | 7.0 | 0.00 | 0.20 | 0.04 | 88 | 1005.5 |
| 20260505151710 | 40 | 340 | 4.0 | 5.0 | 0.00 | 0.21 | 0.04 | 88 | 1005.5 |
| 20260505150710 | 40 | 320 | 7.0 | 9.0 | 0.00 | 0.22 | 0.04 | 88 | 1005.4 |
| 20260505124710 | 40 | 315 | 4.0 | 5.0 | 0.02 | 0.26 | 0.04 | 88 | 1004.4 |
| 20260505123710 | 40 | 313 | 3.0 | 4.0 | 0.02 | 0.26 | 0.04 | 89 | 1004.4 |
| 20260505122710 | 40 | 342 | 3.0 | 4.0 | 0.02 | 0.26 | 0.04 | 89 | 1004.4 |
| 20260505121711 | 40 | 315 | 7.0 | 10.0 | 0.02 | 0.26 | 0.04 | 89 | 1004.4 |
| 20260505120711 | 40 | 349 | 7.0 | 11.0 | 0.01 | 0.26 | 0.03 | 90 | 1004.2 |
| 20260505115731 | 39 | 352 | 6.0 | 7.0 | 0.01 | 0.27 | 0.03 | 91 | 1004.4 |
| 20260505114710 | 39 | 336 | 4.0 | 4.0 | 0.00 | 0.26 | 0.02 | 91 | 1004.4 |
| 20260505113730 | 39 | 112 | 1.0 | 2.0 | 0.00 | 0.26 | 0.02 | 91 | 1004.8 |
| 20260505112711 | 39 | 0.0 | 0.0 | 0.00 | 0.27 | 0.02 | 91 | 1004.5 | |
| 20260505111710 | 39 | 0.0 | 0.0 | 0.00 | 0.28 | 0.02 | 91 | 1004.8 | |
| 20260505110710 | 38 | 315 | 0.0 | 1.0 | 0.00 | 0.28 | 0.02 | 91 | 1004.8 |
| 20260505101710 | 39 | 0.0 | 0.0 | 0.02 | 0.30 | 0.02 | 90 | 1004.8 | |
| 20260505100710 | 40 | 0.0 | 0.0 | 0.02 | 0.30 | 0.02 | 90 | 1004.8 | |
| 20260505095710 | 40 | 0.0 | 0.0 | 0.02 | 0.32 | 0.02 | 90 | 1004.8 | |
| 20260505094710 | 40 | 0.0 | 0.0 | 0.02 | 0.32 | 0.02 | 90 | 1004.8 | |
| 20260505093710 | 40 | 315 | 3.0 | 3.0 | 0.01 | 0.32 | 0.01 | 90 | 1004.8 |
| 20260505092751 | 40 | 0.0 | 0.0 | 0.01 | 0.33 | 0.01 | 89 | 1004.8 | |
| 20260505091710 | 40 | 0.0 | 0.0 | 0.00 | 0.32 | 0.00 | 89 | 1004.8 | |
| 20260505090710 | 40 | 0.0 | 0.0 | 0.00 | 0.33 | 0.00 | 89 | 1004.4 | |
| 20260505085710 | 41 | 0.0 | 0.0 | 0.00 | 0.34 | 0.00 | 88 | 1004.4 | |
| 20260505084751 | 41 | 324 | 2.0 | 4.0 | 0.00 | 0.34 | 0.00 | 89 | 1004.4 |
| 20260505083710 | 40 | 308 | 2.0 | 5.0 | 0.00 | 0.36 | 0.00 | 89 | 1004.4 |
| 20260505082730 | 41 | 0.0 | 0.0 | 0.00 | 0.36 | 0.00 | 89 | 1004.8 | |
| 20260505081731 | 41 | 0.0 | 0.0 | 0.00 | 0.36 | 0.00 | 89 | 1004.7 | |
| 20260505080711 | 41 | 309 | 4.0 | 6.0 | 0.00 | 0.37 | 0.00 | 89 | 1004.7 |
| 20260505075730 | 41 | 0.0 | 0.0 | 0.00 | 0.38 | 0.38 | 89 | 1004.5 | |
| 20260505074710 | 42 | 0.0 | 0.0 | 0.01 | 0.39 | 0.38 | 88 | 1004.8 | |
| 20260505073710 | 42 | 317 | 3.0 | 4.0 | 0.02 | 0.40 | 0.38 | 88 | 1004.8 |
| 20260505072710 | 42 | 315 | 4.0 | 8.0 | 0.02 | 0.42 | 0.38 | 89 | 1005.1 |
| 20260505071730 | 42 | 313 | 6.0 | 8.0 | 0.02 | 0.42 | 0.38 | 89 | 1005.1 |
| 20260505070711 | 42 | 315 | 5.0 | 6.0 | 0.02 | 0.44 | 0.38 | 89 | 1005.5 |
| 20260505065710 | 42 | 314 | 5.0 | 7.0 | 0.03 | 0.44 | 0.38 | 89 | 1005.6 |
| 20260505064731 | 43 | 325 | 4.0 | 5.0 | 0.02 | 0.45 | 0.37 | 89 | 1005.8 |
| 20260505063751 | 43 | 316 | 5.0 | 6.0 | 0.02 | 0.44 | 0.36 | 89 | 1005.8 |
| 20260505062710 | 43 | 322 | 6.0 | 8.0 | 0.02 | 0.44 | 0.36 | 88 | 1005.8 |
| 20260505061710 | 43 | 357 | 1.0 | 5.0 | 0.02 | 0.45 | 0.36 | 88 | 1005.8 |
| 20260505060710 | 43 | 314 | 4.0 | 6.0 | 0.02 | 0.46 | 0.36 | 88 | 1006.0 |
| 20260505055710 | 43 | 287 | 3.0 | 5.0 | 0.01 | 0.45 | 0.35 | 88 | 1005.8 |
| 20260505054710 | 43 | 311 | 4.0 | 7.0 | 0.01 | 0.45 | 0.35 | 88 | 1005.9 |
| 20260505053711 | 43 | 315 | 5.0 | 7.0 | 0.00 | 0.46 | 0.34 | 87 | 1006.1 |
| 20260505052711 | 43 | 323 | 3.0 | 4.0 | 0.00 | 0.46 | 0.34 | 87 | 1005.8 |
| 20260505051711 | 44 | 315 | 3.0 | 4.0 | 0.00 | 0.47 | 0.34 | 87 | 1006.1 |
| 20260505050731 | 44 | 330 | 6.0 | 8.0 | 0.01 | 0.48 | 0.34 | 87 | 1006.5 |
| 20260505040710 | 45 | 49 | 6.0 | 8.0 | 0.00 | 0.49 | 0.33 | 86 | 1007.5 |
| 20260505035710 | 46 | 131 | 0.0 | 2.0 | 0.00 | 0.50 | 0.33 | 84 | 1007.8 |
| 20260505034730 | 46 | 315 | 1.0 | 3.0 | 0.00 | 0.51 | 0.33 | 82 | 1007.8 |
| 20260505033710 | 47 | 320 | 4.0 | 5.0 | 0.00 | 0.51 | 0.33 | 82 | 1007.6 |
| 20260505032710 | 46 | 349 | 2.0 | 4.0 | 0.00 | 0.51 | 0.33 | 83 | 1007.8 |
| 20260505031710 | 46 | 306 | 7.0 | 10.0 | 0.00 | 0.52 | 0.33 | 84 | 1007.8 |
| 20260505030710 | 46 | 316 | 5.0 | 7.0 | 0.00 | 0.53 | 0.33 | 83 | 1008.2 |
| 20260505025710 | 46 | 317 | 6.0 | 8.0 | 0.00 | 0.53 | 0.33 | 82 | 1008.3 |
| 20260505024710 | 47 | 4 | 4.0 | 9.0 | 0.00 | 0.53 | 0.33 | 82 | 1008.5 |
| 20260505023710 | 46 | 332 | 6.0 | 8.0 | 0.00 | 0.55 | 0.33 | 82 | 1008.4 |
| 20260505022710 | 46 | 321 | 7.0 | 15.0 | 0.00 | 0.55 | 0.33 | 83 | 1008.5 |
| 20260505021710 | 46 | 325 | 8.0 | 11.0 | 0.01 | 0.55 | 0.33 | 83 | 1008.5 |
| 20260505020710 | 46 | 317 | 10.0 | 16.0 | 0.01 | 0.57 | 0.33 | 83 | 1008.6 |
| 20260505015730 | 47 | 326 | 7.0 | 9.0 | 0.01 | 0.57 | 0.33 | 83 | 1009.1 |
| 20260505014710 | 47 | 322 | 6.0 | 10.0 | 0.01 | 0.57 | 0.33 | 84 | 1009.2 |
| 20260505013710 | 47 | 333 | 8.0 | 11.0 | 0.02 | 0.59 | 0.33 | 85 | 1009.5 |
| 20260505012731 | 47 | 319 | 8.0 | 11.0 | 0.03 | 0.59 | 0.33 | 87 | 1009.5 |
| 20260505011710 | 47 | 358 | 3.0 | 8.0 | 0.02 | 0.58 | 0.32 | 87 | 1010.2 |
| 20260505010710 | 46 | 336 | 5.0 | 9.0 | 0.02 | 0.58 | 0.32 | 88 | 1010.6 |
| 20260505005710 | 46 | 202 | 1.0 | 4.0 | 0.02 | 0.58 | 0.32 | 88 | 1010.9 |
| 20260505004730 | 46 | 180 | 0.0 | 3.0 | 0.03 | 0.59 | 0.32 | 88 | 1010.9 |